GFSWCAN_500_rhum_216.txt.gz
RH
45 39 35 32 27 22 18 13 9 6 3 6 17 19 25 31 31 41 46 54 47 46 62 70 81 98 91 100 96 88 49 69 100 100 100 100 100 100 100 100 100 100 100 100 99 100 99 87 65 52 48 35 26 26
49 45 40 36 32 26 21 15 11 7 4 3 11 18 22 27 35 44 44 53 59 62 66 77 73 84 87 75 70 85 100 100 100 100 100 99 100 96 97 99 99 100 93 100 99 97 90 50 30 23 34 39 56 58
54 49 46 42 39 32 25 20 14 9 6 4 4 15 19 22 31 38 41 41 50 70 74 68 92 100 100 100 99 100 100 100 100 98 100 91 100 99 100 100 100 99 99 100 96 85 57 40 36 36 51 70 65 54
56 52 49 48 46 39 31 24 18 12 9 5 3 5 17 20 20 32 34 34 36 41 52 73 64 90 100 97 85 88 88 100 100 100 93 75 81 88 94 92 95 94 99 84 75 46 41 39 39 40 45 46 42 33
60 58 56 55 52 46 39 31 24 17 12 8 5 3 7 19 20 21 25 30 44 46 44 47 76 84 93 95 45 56 93 98 100 79 100 100 100 87 63 69 75 69 54 41 42 37 38 48 56 61 55 47 37 30
63 64 64 62 61 56 49 38 30 23 17 12 8 5 4 8 20 24 26 35 46 51 53 60 56 64 81 80 90 75 61 83 72 68 56 41 36 40 45 52 53 34 33 30 29 38 47 50 48 49 42 32 36 40
59 63 66 67 67 66 62 52 39 30 22 17 12 8 5 4 7 17 25 30 38 47 50 57 51 76 96 88 74 60 62 81 80 87 68 79 72 66 62 59 56 59 52 48 60 63 49 36 40 49 44 42 47 46
62 63 66 70 72 72 72 67 54 40 28 21 18 12 9 6 5 8 16 28 34 42 59 41 51 70 89 100 99 78 89 76 78 78 68 70 69 54 42 58 65 59 44 38 57 46 70 63 56 45 35 27 27 36
68 70 71 73 75 76 77 77 72 57 41 28 22 18 13 9 7 6 8 18 34 48 54 36 44 77 66 78 77 78 80 78 68 65 66 58 58 52 75 93 67 65 61 42 49 61 40 38 39 36 32 29 30 34
65 68 72 75 80 82 80 79 80 78 62 44 27 24 17 14 11 8 8 9 18 34 41 34 42 72 51 70 75 67 66 63 62 56 50 50 46 59 100 66 100 86 79 53 71 51 52 45 37 35 32 30 30 36
54 58 62 69 78 85 88 86 83 82 80 70 46 32 23 20 16 12 9 7 8 18 28 39 37 42 52 64 69 64 63 52 48 44 41 34 65 78 94 63 63 63 82 93 86 74 57 50 46 41 40 33 29 36
42 50 55 61 72 81 88 90 89 86 86 86 75 50 33 25 20 18 14 10 7 7 12 26 36 38 40 41 49 45 42 41 43 41 34 38 71 75 71 55 68 88 96 100 94 76 58 56 54 46 42 35 31 34
22 34 47 51 56 66 81 89 94 91 88 88 87 80 53 37 26 27 22 16 12 8 7 9 19 29 39 40 40 37 38 46 45 40 77 85 83 74 71 71 88 92 95 95 94 73 56 52 55 52 51 35 32 31
18 19 33 44 48 58 66 76 92 97 94 91 90 88 80 58 38 29 28 26 22 17 12 9 8 11 20 32 31 25 28 40 41 43 46 82 76 73 81 75 77 82 86 83 84 80 75 70 66 62 57 48 35 29
22 18 19 35 44 51 61 65 76 95 99 99 96 88 89 82 62 40 31 32 32 28 24 19 13 10 9 9 20 28 31 29 29 35 52 26 39 64 71 71 70 65 72 80 80 77 68 64 63 60 55 48 48 38
36 25 21 21 32 37 50 63 68 82 100 100 98 91 90 92 89 68 42 35 37 38 35 31 27 24 16 12 8 8 11 26 43 27 36 32 24 33 51 64 72 69 64 74 80 73 71 69 63 62 54 50 44 40
74 43 28 22 21 24 32 58 66 73 89 98 96 92 93 99 91 97 79 55 44 44 46 43 39 36 32 27 21 14 10 7 7 7 10 14 29 41 40 41 50 62 80 85 84 91 91 82 70 80 75 72 64 49
98 85 56 31 24 22 23 42 60 70 83 90 100 92 90 100 99 92 100 95 74 58 57 56 56 46 44 38 36 32 28 24 18 13 9 8 7 7 8 11 23 38 61 82 97 99 100 100 100 100 100 97 91 79
100 100 89 69 44 29 23 28 46 66 76 81 90 98 93 95 98 96 100 100 100 93 84 74 80 73 60 50 46 43 40 36 33 30 28 24 20 14 9 7 7 7 8 10 16 35 64 85 97 100 100 98 96 89
100 100 100 96 73 41 28 30 34 53 67 80 86 96 100 92 90 94 96 98 97 100 100 99 95 91 92 77 64 56 52 48 43 40 37 34 31 24 17 11 8 7 6 7 8 11 15 20 33 97 100 100 98 88
100 100 100 98 85 55 38 34 36 43 61 75 85 93 99 97 91 90 96 96 96 100 100 100 100 98 100 99 92 79 68 63 57 50 45 40 36 32 27 18 11 8 6 6 7 10 14 19 26 33 100 100 100 100
100 100 100 98 92 72 50 48 46 58 70 72 71 84 98 99 93 90 93 92 100 100 93 90 100 98 100 100 100 97 87 76 67 57 48 43 41 36 32 25 15 9 6 6 6 7 9 11 15 27 35 52 98 100
100 100 96 93 86 77 70 73 76 85 82 77 72 80 96 100 97 91 91 100 100 100 91 97 99 98 100 100 100 100 94 84 73 58 49 48 44 39 34 28 18 11 7 6 6 9 15 18 16 14 23 50 63 94
100 100 97 89 78 83 90 100 100 94 88 79 68 74 88 91 85 80 88 100 96 94 91 100 98 99 100 100 100 100 97 90 80 59 55 52 46 42 37 30 20 14 8 6 7 12 19 22 22 16 17 20 57 100
99 99 87 72 72 79 92 100 100 95 92 80 70 78 93 88 77 77 96 94 92 88 91 96 97 99 100 100 100 100 100 94 85 63 60 53 47 44 41 35 25 17 10 7 8 15 22 23 25 23 19 19 23 88
92 85 73 64 74 90 94 96 100 99 91 82 82 92 95 84 79 94 100 100 100 97 98 100 100 100 100 100 100 100 100 95 90 70 65 57 54 52 46 41 30 21 13 8 8 15 24 24 27 34 45 98 83 38
83 71 67 74 90 95 97 100 100 94 86 87 89 92 91 82 84 100 100 100 100 100 100 100 100 100 100 100 100 100 100 99 94 77 72 64 63 59 53 47 37 27 19 11 10 13 25 27 27 37 50 79 90 100
76 79 91 99 100 100 100 99 97 94 87 83 83 92 85 88 97 98 96 89 87 100 100 100 100 100 100 100 100 100 100 100 94 87 84 75 72 68 59 54 45 34 27 16 12 12 20 29 28 31 53 73 82 90
80 93 100 100 100 100 96 100 89 82 73 75 85 88 90 100 100 95 92 92 88 100 100 100 100 100 100 100 100 100 99 100 95 93 94 85 81 78 68 61 54 44 36 24 16 13 15 28 33 31 35 61 82 96
100 100 100 100 98 93 92 83 81 78 76 86 96 96 96 100 100 90 93 100 100 91 88 92 97 100 100 100 100 100 100 100 98 95 98 93 89 87 78 71 64 54 46 38 25 17 15 20 34 38 37 36 56 82
100 100 98 95 94 100 93 85 83 85 88 90 91 89 92 93 94 97 95 97 100 92 90 85 88 94 100 100 100 100 99 100 99 97 98 96 94 90 83 82 77 68 57 50 39 25 18 17 24 39 43 45 44 48
100 100 100 99 99 94 86 87 86 88 98 96 94 87 82 78 75 71 87 88 90 94 100 97 95 100 100 100 100 100 100 100 99 100 98 95 95 96 92 86 83 80 74 64 56 41 25 19 18 29 45 49 50 50
95 97 94 93 94 96 97 91 88 82 71 72 73 75 76 79 90 99 100 93 99 100 100 100 100 100 100 100 100 100 100 100 100 98 93 96 100 99 94 89 85 84 83 83 71 60 41 25 19 21 34 48 54 54

GFSWCAN_500_rhum_219.txt.gz
RH
51 50 45 40 37 35 32 29 25 19 15 12 8 5 4 10 16 20 30 36 40 52 60 69 80 90 77 70 92 100 51 95 99 100 100 100 89 93 98 97 100 93 97 97 97 92 100 94 100 98 89 100 85 64
50 50 46 41 40 38 37 33 29 23 17 14 10 6 4 7 14 17 25 30 34 40 59 70 91 90 97 94 82 86 99 93 100 100 100 99 100 90 90 94 99 93 98 100 100 100 100 100 100 91 82 45 26 22
49 49 47 46 45 43 41 38 33 27 21 17 13 9 5 4 10 16 19 25 31 35 39 94 72 88 100 80 65 96 99 92 91 89 95 100 100 100 100 100 97 99 99 100 100 100 99 97 79 45 25 21 24 26
45 49 52 52 51 49 46 44 39 32 25 20 16 11 8 5 6 12 19 23 34 42 47 60 53 83 92 63 61 69 71 97 87 97 97 85 78 62 98 100 90 100 100 100 100 100 81 57 32 26 28 25 24 24
46 48 52 55 55 55 54 51 48 40 31 24 19 14 11 7 5 7 15 23 31 40 46 47 78 66 97 48 43 65 60 52 73 84 100 100 86 70 60 65 83 87 79 88 99 80 39 33 24 24 28 34 32 29
51 52 53 55 57 57 59 59 58 50 40 30 24 18 14 10 7 6 8 14 25 34 42 49 45 61 65 78 60 66 61 69 69 71 76 84 71 45 54 51 42 36 29 28 33 33 34 32 34 35 32 28 33 38
56 55 56 57 59 61 62 63 65 61 54 41 30 24 19 15 10 8 7 8 16 27 36 55 79 100 34 60 75 77 61 38 42 40 70 86 85 84 70 79 100 66 49 41 43 45 48 43 39 44 43 39 29 25
62 62 63 64 65 66 67 68 68 67 66 57 40 31 24 20 16 11 8 7 9 16 22 22 66 89 33 85 99 64 98 86 80 75 73 72 73 65 69 63 54 58 65 47 36 36 46 61 46 37 33 32 29 26
64 64 65 66 69 71 73 74 73 71 70 69 58 42 29 27 21 15 14 9 8 10 13 13 30 94 54 70 64 74 61 72 96 53 61 52 37 54 71 71 86 82 95 75 71 40 54 42 42 40 36 29 29 26
59 56 55 58 64 69 73 78 80 78 75 74 73 60 42 34 27 22 15 13 9 9 10 12 26 92 64 79 78 82 76 67 67 69 46 36 47 56 80 83 61 86 97 81 69 55 54 52 47 43 38 34 28 26
49 50 52 53 55 58 65 73 79 83 83 82 79 76 63 43 33 28 23 19 14 11 9 11 14 24 50 58 79 78 67 73 61 60 50 55 67 80 55 66 50 52 59 60 76 85 80 58 51 47 39 33 27 28
36 39 42 48 50 50 54 57 65 78 83 87 86 82 77 63 48 38 30 24 21 15 11 10 12 12 15 15 32 60 49 29 31 61 46 63 72 70 60 57 34 46 58 72 92 92 83 66 53 45 43 43 36 27
23 20 22 27 39 45 44 50 57 65 74 83 86 87 84 76 66 46 37 34 28 25 20 15 12 10 11 14 21 22 17 39 74 73 73 78 85 76 62 64 56 64 80 89 91 88 87 79 58 48 47 49 44 36
29 24 20 17 18 30 39 40 50 57 59 68 78 82 86 84 83 75 55 38 35 33 30 26 20 18 14 9 9 10 14 15 17 35 40 83 92 75 56 58 68 55 62 73 78 78 77 76 75 68 62 58 53 41
43 36 32 24 19 19 28 37 35 44 55 58 63 71 79 87 87 89 84 67 42 38 40 38 32 30 23 22 16 13 12 9 11 32 93 62 51 40 20 31 52 58 66 68 62 61 64 71 76 72 61 53 50 44
70 58 49 49 32 23 22 24 28 28 40 55 60 66 70 84 91 90 91 89 84 55 46 49 47 42 38 34 30 26 22 18 18 25 9 8 8 10 14 19 19 22 32 44 51 53 54 58 67 76 75 68 56 48
97 89 85 90 76 45 30 22 21 22 25 44 58 64 70 77 85 88 89 91 91 94 83 68 63 60 59 47 43 40 38 34 30 29 26 24 22 19 15 11 8 8 10 15 20 28 37 53 70 89 96 96 86 63
100 100 100 100 100 95 77 47 29 24 23 25 38 52 64 75 79 83 88 96 95 93 94 96 86 78 80 78 67 56 51 48 46 42 39 36 35 33 31 27 22 16 12 9 8 7 8 14 32 60 87 100 100 100
100 100 100 100 100 100 100 88 75 53 30 25 26 35 54 68 80 85 89 95 97 96 98 100 99 100 94 94 93 87 75 66 62 59 56 50 45 40 36 34 31 28 23 16 11 8 7 7 8 9 12 25 70 99
100 100 100 100 100 100 99 100 96 84 57 35 30 29 42 62 71 82 85 87 90 95 100 100 100 87 95 100 99 98 98 93 86 78 68 60 51 42 41 40 36 31 25 18 12 9 6 6 6 8 11 16 20 40
100 100 100 100 99 98 98 100 100 97 81 56 40 36 46 62 66 73 85 82 82 99 100 100 90 84 91 100 100 100 100 100 100 96 83 68 52 45 45 43 39 33 26 19 14 9 6 5 6 7 9 12 20 29
100 100 100 100 100 98 98 100 100 100 94 84 63 55 60 65 64 68 84 83 81 90 94 100 100 100 100 100 100 100 100 100 100 100 96 79 57 51 48 43 41 38 32 21 15 9 6 5 6 10 15 17 14 28
100 100 100 100 100 90 90 100 99 100 91 90 86 76 69 64 64 69 83 86 80 76 73 92 100 100 100 100 100 100 100 100 100 100 100 88 66 56 52 48 50 44 38 24 19 10 6 6 8 15 19 20 17 16
100 100 100 100 92 79 81 86 97 100 94 96 91 80 70 65 60 76 94 84 71 73 79 96 100 100 100 100 100 100 100 100 100 100 100 92 75 62 57 58 57 47 41 30 23 14 7 6 10 17 21 22 18 16
100 100 96 82 78 74 79 86 99 100 98 94 80 74 67 65 62 76 92 79 75 81 94 100 100 95 96 100 100 100 100 100 100 100 100 95 85 70 65 65 61 48 43 36 27 20 9 7 10 20 22 24 25 21
97 94 84 73 71 79 83 85 100 100 97 91 84 75 71 63 64 73 83 83 82 99 100 100 100 98 98 100 100 100 100 100 100 100 100 99 93 79 74 72 66 55 48 44 35 27 14 9 9 18 24 24 29 34
92 78 70 75 79 85 85 97 100 100 97 94 83 82 79 71 71 81 84 83 85 99 100 100 100 100 100 100 100 100 100 100 100 100 100 100 99 88 84 78 71 62 54 50 45 34 23 13 11 13 25 27 28 38
83 78 73 84 88 92 93 97 100 100 96 91 86 84 76 72 76 80 79 84 89 98 100 100 100 100 100 100 100 100 100 100 100 100 100 100 100 95 91 85 80 69 60 57 53 43 33 22 14 13 18 30 30 34
74 77 94 100 100 100 98 100 100 95 91 80 72 69 70 82 90 79 79 89 96 99 100 100 100 100 100 100 100 100 100 100 100 100 100 100 100 100 97 89 85 78 70 64 62 56 44 36 25 16 15 22 34 35
80 96 100 100 100 100 100 99 90 84 72 66 69 73 73 82 91 88 90 92 93 96 97 96 99 100 100 98 100 100 99 97 100 100 100 100 100 100 98 90 87 85 79 74 71 67 61 49 39 27 18 18 26 38
100 100 100 100 99 100 93 82 77 74 75 80 81 79 86 86 85 85 86 90 89 86 86 90 99 100 100 100 95 94 97 100 100 100 100 100 100 100 96 90 90 91 90 85 79 75 73 67 54 44 29 20 20 28
100 100 100 98 94 91 89 84 78 76 80 81 89 87 83 82 82 80 80 79 72 71 74 79 92 100 100 100 100 100 100 100 100 100 100 100 100 100 94 90 92 94 96 93 86 83 80 76 69 58 49 31 21 22
100 100 100 99 96 93 94 91 82 84 91 94 91 93 91 85 76 73 79 80 78 88 98 100 100 100 100 100 100 100 100 100 100 100 100 100 100 100 97 94 98 97 99 97 90 88 87 84 79 69 63 50 32 23

GFSWCAN_500_rhum_222.txt.gz
RH
62 48 45 44 40 36 35 35 32 29 27 24 21 18 15 12 9 6 6 11 18 27 32 51 71 69 52 68 98 96 75 100 100 100 100 100 100 99 100 91 90 96 100 100 96 82 91 79 91 94 99 100 100 90
53 48 48 44 41 40 40 39 35 33 31 27 25 21 17 14 10 8 6 9 16 26 35 60 97 68 76 72 67 53 94 86 89 87 92 100 100 100 100 99 87 93 92 90 100 100 100 76 100 100 100 98 90 82
52 50 49 46 44 44 45 42 40 39 36 32 29 25 21 16 13 9 7 6 12 23 33 49 50 59 76 74 69 77 90 77 65 66 75 98 100 100 99 100 100 94 99 96 100 99 100 99 100 99 96 73 47 32
52 48 47 46 46 48 48 46 45 45 42 39 34 30 25 20 15 12 9 6 7 15 26 35 38 81 66 59 61 55 66 74 59 67 70 81 76 70 94 91 98 100 100 100 100 98 100 100 87 80 50 34 26 27
51 48 48 48 48 49 48 47 48 50 48 45 41 36 29 24 19 15 11 8 6 8 16 29 56 88 44 44 51 57 48 42 47 40 68 85 75 39 50 74 88 78 71 75 92 99 100 96 72 56 36 20 17 14
54 52 51 50 50 50 50 51 51 51 52 50 49 43 36 29 23 19 14 11 7 6 8 22 58 50 36 60 40 44 62 41 44 22 29 63 86 56 49 48 45 43 39 35 40 33 27 24 23 20 16 16 20 28
60 57 55 54 54 55 57 58 59 57 54 53 54 51 44 35 28 22 17 14 11 7 6 13 42 75 24 49 84 91 66 49 39 32 23 58 90 76 58 71 100 68 41 35 28 27 32 34 35 32 33 37 30 24
67 65 63 62 61 61 61 62 64 64 62 59 57 57 54 43 34 29 22 18 14 10 8 8 21 53 19 67 91 89 71 92 92 81 70 73 64 59 82 81 84 61 54 54 49 46 30 30 36 47 35 33 31 27
72 69 68 67 65 61 60 59 60 62 64 66 66 63 61 55 43 35 29 23 19 16 11 8 13 34 18 35 54 68 88 75 66 72 63 60 67 39 60 67 59 64 51 96 99 74 60 33 45 42 43 36 31 26
73 68 66 65 62 60 57 56 52 53 57 63 70 71 68 64 58 45 38 31 27 21 16 12 11 20 37 81 85 99 87 77 78 66 54 44 33 46 92 76 50 35 64 62 76 71 49 50 48 50 44 39 29 24
68 62 57 54 53 53 52 50 49 48 50 55 62 67 70 70 67 58 50 40 36 29 25 20 16 11 13 9 14 24 48 37 59 75 74 65 58 73 100 68 46 31 31 35 36 39 60 68 74 59 50 43 38 33
62 53 49 49 48 48 48 45 42 43 46 46 51 62 71 75 74 69 66 56 45 41 36 30 23 18 17 14 11 13 11 11 12 31 76 49 76 64 83 68 48 44 30 38 56 70 96 94 86 78 69 53 43 42
62 48 38 34 31 29 34 38 38 36 37 46 46 52 61 73 78 77 76 74 63 49 44 40 36 31 25 25 19 15 13 11 16 25 48 93 81 71 70 63 47 45 47 43 51 55 68 75 74 72 71 61 58 49
73 48 32 24 19 17 17 18 27 38 35 31 38 46 58 62 71 78 80 78 80 78 56 52 49 43 40 34 33 28 22 18 14 12 39 100 74 50 53 62 57 30 36 50 46 45 50 54 54 49 48 54 61 53
85 59 43 33 28 26 22 19 18 25 32 29 25 31 47 59 65 72 80 85 84 88 86 67 54 58 55 51 43 40 36 34 28 23 69 22 15 13 12 9 9 9 11 13 22 33 40 43 45 47 49 49 52 66
100 78 61 53 45 41 39 41 33 23 24 26 24 24 32 48 56 63 73 84 86 92 93 92 88 74 69 70 66 57 51 46 44 44 37 34 33 33 33 32 30 26 22 17 12 10 9 9 13 20 29 38 46 52
100 100 100 88 79 78 73 74 90 68 40 36 26 24 25 27 38 50 65 76 81 88 95 95 100 100 93 84 84 85 82 75 63 59 53 50 47 46 44 41 38 36 34 32 29 25 19 14 10 8 8 9 16 31
100 98 97 99 100 100 100 100 98 97 99 93 78 55 41 30 27 34 51 69 74 79 85 97 96 100 100 100 100 95 97 99 95 86 78 70 64 60 55 48 40 40 40 37 33 26 20 16 12 9 7 7 7 8
97 100 100 100 100 100 100 99 98 99 100 98 95 90 80 56 38 32 40 65 73 70 73 90 99 99 96 80 94 100 100 100 100 99 99 94 90 76 63 49 44 44 42 39 37 34 24 19 16 8 6 5 6 7
97 100 100 99 99 100 100 98 100 98 100 100 99 93 89 81 64 45 40 58 68 73 79 91 89 88 89 86 87 100 100 100 100 100 100 94 97 96 80 56 48 47 44 47 42 36 29 24 22 9 5 5 5 7
97 100 100 100 100 100 100 97 100 100 100 100 100 98 94 88 83 70 58 64 71 76 72 75 75 84 92 96 100 100 100 100 100 100 100 97 96 99 91 73 53 51 53 54 41 36 32 28 21 8 5 4 6 11
100 100 100 100 97 94 94 97 99 100 100 100 100 94 89 84 77 74 69 71 78 75 67 65 74 78 84 91 100 100 100 100 100 100 100 100 100 100 96 91 64 57 59 58 41 35 33 30 22 8 6 5 8 15
100 100 100 100 100 90 83 100 99 100 100 100 99 88 82 77 74 74 71 79 75 70 68 65 68 72 74 89 100 100 100 100 100 100 100 100 100 100 100 98 78 66 65 64 44 36 34 32 26 12 6 5 10 17
100 100 97 97 97 83 80 92 100 100 99 100 94 86 85 80 74 72 70 74 71 72 70 73 70 71 82 97 100 100 100 100 100 100 100 100 100 100 100 100 90 76 73 70 52 38 34 34 28 18 8 6 10 18
100 100 95 81 78 80 76 83 99 100 100 100 92 83 82 82 75 65 67 73 77 73 71 75 76 79 95 100 99 99 98 100 100 100 100 100 100 100 100 100 96 84 80 74 58 43 36 37 32 28 14 8 8 18
99 100 94 79 74 83 85 92 100 100 100 100 97 92 90 79 65 59 66 80 78 78 79 78 77 81 97 100 100 100 100 100 100 100 100 100 100 100 100 100 100 94 86 75 64 52 43 42 41 34 25 12 9 15
92 79 76 82 81 87 92 99 98 100 100 100 100 99 90 76 63 59 74 76 76 79 80 77 79 86 100 100 100 100 100 100 100 100 100 100 100 100 100 100 100 99 94 79 67 62 53 48 48 46 36 23 13 12
79 85 73 82 91 92 90 92 90 95 100 100 100 98 85 72 65 64 77 74 76 76 74 75 80 96 100 100 100 100 100 100 100 100 100 100 100 100 100 100 100 100 98 83 75 70 65 55 54 56 49 35 24 15
85 88 92 88 96 97 94 97 98 100 100 100 96 90 76 72 76 85 78 70 72 76 80 84 95 100 100 100 100 100 100 100 100 100 100 100 100 100 100 100 100 100 100 91 81 78 73 63 62 62 57 46 37 28
87 95 99 100 100 100 100 100 100 100 99 91 82 77 76 77 77 73 69 79 81 82 85 88 96 94 93 97 99 100 100 100 100 100 100 100 100 100 100 100 100 100 100 93 88 85 80 69 67 71 66 55 46 42
92 97 99 100 100 100 100 99 97 96 86 82 81 73 74 79 77 72 69 84 96 90 83 80 76 81 82 82 84 88 96 100 100 100 100 100 100 100 100 100 100 100 100 100 97 90 82 75 69 74 76 70 58 54
100 100 100 100 100 98 94 92 90 84 82 80 83 82 79 76 75 75 87 99 92 84 78 77 74 75 80 97 100 100 100 100 100 100 100 100 100 100 100 100 100 100 100 100 99 95 89 82 74 77 82 80 70 61
100 100 100 100 96 95 92 93 88 85 89 91 88 87 89 83 81 78 84 87 85 83 77 73 76 83 92 100 100 100 100 100 100 100 100 100 100 100 100 100 100 100 100 100 100 99 96 87 77 79 84 84 76 65

GFSWCAN_500_rhum_228.txt.gz
RH
73 75 73 69 63 51 40 37 33 28 27 27 27 28 27 27 26 23 21 20 16 12 9 8 6 8 22 44 25 27 46 42 36 74 98 100 91 100 100 81 96 86 78 81 85 100 98 91 100 100 98 100 98 94
84 81 77 73 60 43 37 35 30 29 28 29 30 29 29 29 28 26 24 22 19 15 11 9 7 7 10 31 22 25 35 29 28 45 62 69 90 86 82 98 80 97 90 100 100 96 81 62 59 88 90 100 100 100
82 89 84 72 50 36 37 33 30 30 31 32 31 30 30 30 30 30 29 26 22 18 13 10 8 8 10 21 20 23 24 28 36 46 42 43 54 41 62 70 95 94 100 100 100 100 100 100 99 89 99 95 94 99
98 93 82 64 42 39 36 33 33 33 35 34 32 30 30 31 32 33 32 29 26 22 18 13 10 8 12 16 20 24 30 25 28 24 35 38 36 59 67 60 56 59 40 30 30 69 99 100 100 100 100 96 78 58
99 92 84 57 43 38 36 36 36 38 39 37 34 33 32 32 34 36 34 32 32 27 22 18 12 10 11 16 23 24 28 31 23 20 19 22 20 20 40 48 42 34 26 24 25 24 21 38 51 59 64 72 74 40
100 98 84 52 41 39 38 38 41 42 41 36 36 36 35 34 36 36 37 35 36 33 29 23 18 14 11 14 26 42 45 42 37 32 29 17 18 27 40 57 63 52 47 54 41 30 20 20 22 28 27 19 15 13
100 98 73 49 45 43 41 42 45 45 41 38 37 37 36 36 37 37 37 38 40 39 37 31 26 20 15 13 15 20 37 52 60 56 62 60 50 44 71 73 61 60 64 40 23 18 27 67 50 33 34 27 26 36
100 95 64 52 50 48 47 47 47 43 39 37 35 35 36 37 38 40 41 42 44 43 43 41 34 28 24 18 14 13 15 19 33 41 54 66 67 60 68 53 53 63 50 43 35 25 72 53 60 54 44 38 36 39
100 89 58 54 55 54 52 51 47 41 38 35 32 33 36 37 39 42 43 45 47 47 47 48 46 39 34 28 22 18 15 11 12 12 14 23 37 58 64 60 72 72 75 66 34 25 27 45 65 60 57 35 40 43
100 82 61 59 60 58 56 53 46 40 39 34 30 29 32 37 39 41 43 46 50 51 53 53 52 51 47 42 37 31 27 21 16 16 14 15 13 15 29 46 59 60 60 59 34 28 26 28 32 36 33 37 40 51
100 80 66 66 64 60 57 51 44 43 37 31 28 24 26 26 32 40 42 43 48 53 57 60 58 58 56 55 52 48 42 38 32 28 24 23 18 15 14 20 27 39 32 30 28 24 30 33 30 35 52 58 60 58
100 80 70 70 70 63 58 48 44 44 35 30 21 23 22 20 26 32 34 42 46 50 55 60 66 65 66 64 61 63 62 56 52 45 40 30 28 24 23 25 23 20 19 19 17 14 12 12 14 19 21 23 29 34
100 85 76 77 76 67 59 51 47 47 42 34 38 42 42 40 36 30 29 33 35 42 51 58 64 69 72 69 71 74 73 71 71 66 60 50 43 38 35 36 34 36 36 36 35 34 33 32 28 24 20 17 14 13
100 93 84 85 82 72 62 54 51 49 43 33 34 33 35 40 39 36 33 29 33 31 34 46 55 62 70 72 76 83 80 76 76 79 81 83 77 60 56 52 52 53 52 48 42 42 43 41 39 37 36 32 24 20
100 98 92 95 91 81 68 58 53 45 33 20 18 19 21 23 27 33 37 42 41 33 32 36 52 64 69 67 81 77 80 81 83 85 89 93 100 99 91 81 73 68 65 60 46 46 46 43 47 45 38 35 30 28
100 100 100 100 98 91 80 64 51 36 24 21 22 24 30 61 74 71 78 86 80 74 52 45 40 55 69 75 74 83 72 85 90 99 92 98 100 100 100 98 96 96 93 83 63 49 49 49 52 41 30 27 25 17
100 100 100 100 100 100 93 75 58 41 29 31 39 42 52 84 97 98 100 95 91 89 83 65 46 53 72 80 78 65 73 83 95 100 100 99 94 96 97 95 98 100 100 99 97 66 53 53 55 38 23 20 18 13
100 100 100 100 100 100 100 100 87 63 56 61 71 77 92 99 100 100 100 100 97 95 92 82 76 62 73 81 90 76 68 80 94 100 100 100 100 100 100 100 100 100 100 100 100 97 72 60 59 40 21 20 20 19
100 100 100 100 100 99 98 95 92 98 100 100 100 94 93 99 100 100 100 100 100 96 92 99 88 79 75 88 90 79 70 69 76 89 93 98 100 100 100 100 100 100 99 98 100 100 95 71 62 43 22 23 23 21
100 100 100 100 98 100 98 94 97 97 100 99 100 95 94 100 100 100 100 100 99 96 98 100 90 81 82 89 87 82 76 77 82 84 87 94 100 100 100 100 100 100 97 100 100 100 100 85 67 48 30 28 27 23
100 100 98 96 99 98 93 88 91 92 94 93 92 88 89 94 100 100 100 98 98 99 99 88 88 93 88 90 85 72 65 63 64 78 84 89 100 100 100 100 100 98 100 100 100 100 100 96 77 57 39 34 28 24
100 100 98 99 95 92 82 78 78 76 73 75 79 82 88 94 100 99 93 95 96 100 90 94 94 92 91 86 77 68 63 61 62 70 76 89 100 100 100 100 98 99 100 100 100 100 100 100 87 63 45 39 31 27
100 99 96 94 86 77 71 75 71 68 68 76 86 85 85 88 95 87 81 95 100 99 93 95 94 90 83 80 73 68 66 69 69 72 77 90 99 94 100 100 99 100 100 100 100 100 100 100 96 71 51 45 36 31
100 100 97 90 82 72 63 62 66 70 74 83 85 85 86 83 75 71 80 100 98 95 94 90 86 81 77 72 71 69 66 65 66 71 77 84 97 100 100 100 99 100 100 100 100 100 100 100 98 82 56 50 43 37
100 100 88 71 68 61 56 61 72 83 89 91 79 75 81 90 80 72 80 100 94 93 88 85 83 79 79 74 71 70 69 69 70 75 76 86 98 100 100 100 99 99 100 100 100 100 100 100 98 90 64 57 52 42
99 96 81 65 62 66 67 70 80 89 89 86 85 92 99 92 82 71 90 93 87 84 82 81 80 79 73 66 67 67 65 64 67 73 78 92 99 100 100 100 100 100 99 100 100 100 100 100 100 95 77 70 61 51
92 74 68 68 64 72 81 86 86 86 86 88 92 95 92 84 80 86 91 84 79 78 78 78 76 72 71 72 72 70 66 64 67 78 94 97 95 96 100 100 100 100 100 100 100 100 100 100 100 98 92 82 71 62
77 68 63 70 76 79 77 80 83 83 89 99 100 100 95 83 85 91 86 78 74 72 73 71 70 72 72 72 71 69 69 71 76 89 97 99 99 98 98 99 100 100 100 100 100 100 100 100 100 100 97 92 81 74
66 62 65 66 73 76 74 77 84 90 100 100 93 94 91 94 92 87 80 72 70 71 77 71 70 73 74 70 71 73 75 75 79 88 94 94 93 94 96 100 100 100 100 100 100 100 100 100 100 100 98 93 88 85
72 70 65 64 63 64 67 76 86 100 99 93 90 92 92 90 85 78 75 73 73 78 79 71 67 67 66 68 72 75 79 85 84 80 84 82 82 84 97 99 100 100 100 100 100 100 100 100 100 100 99 97 92 88
88 92 88 81 75 76 84 91 96 99 99 100 100 97 90 85 76 69 68 71 75 74 72 67 66 67 71 74 76 78 82 83 78 77 78 80 88 96 100 100 100 100 100 100 100 100 100 100 100 100 98 99 100 96
99 100 100 98 93 96 100 100 100 100 100 99 94 91 86 78 68 65 74 78 72 65 64 65 69 74 75 73 74 73 72 76 79 78 80 94 100 100 100 100 100 100 100 100 100 100 100 100 100 99 96 97 100 100
98 100 100 100 98 99 100 100 100 98 90 86 85 84 81 79 75 71 77 76 70 74 78 81 81 80 77 71 69 70 71 72 74 79 94 100 100 99 100 100 100 100 100 100 100 100 100 100 100 100 99 100 100 100

GFSWCAN_500_rhum_234.txt.gz
RH
12 26 38 46 51 50 50 48 46 42 34 27 25 18 20 22 22 23 20 18 18 18 15 13 12 14 15 12 9 8 9 14 31 34 30 29 32 48 65 75 79 83 86 95 83 90 75 68 64 93 100 100 100 74
33 43 51 56 54 52 54 53 48 40 32 27 22 24 25 23 23 23 20 20 20 18 16 15 14 16 17 15 12 10 8 8 15 28 23 24 25 25 36 52 53 58 73 60 63 65 57 74 68 76 100 99 85 98
45 56 58 56 58 64 59 54 48 39 29 24 28 27 28 28 24 18 22 23 22 19 18 17 16 17 19 19 16 13 11 10 9 9 13 18 22 22 20 19 28 35 39 37 31 32 33 44 47 53 55 59 64 66
57 63 64 67 69 66 65 59 48 33 28 30 31 33 32 31 23 19 23 24 22 20 19 20 19 18 21 23 21 18 15 13 12 12 13 13 13 14 15 17 19 25 28 29 31 36 35 24 20 21 33 54 63 61
63 68 72 73 71 68 66 60 40 36 30 38 36 36 34 32 24 22 25 25 22 20 20 22 22 20 23 26 26 24 21 18 16 14 13 14 16 21 21 27 29 28 40 39 28 28 20 14 11 14 18 16 16 23
63 66 76 80 79 76 70 52 38 40 34 40 39 33 36 33 26 24 25 25 24 22 23 27 24 23 24 28 31 32 30 26 22 19 18 16 12 13 12 15 17 20 23 24 28 34 22 13 13 15 31 39 58 49
64 77 83 85 86 83 72 44 38 44 42 48 41 34 38 33 29 27 26 27 24 22 23 26 26 26 28 30 34 37 38 37 35 30 26 24 20 15 12 12 11 11 14 14 16 14 16 11 13 15 16 24 39 42
79 85 87 91 94 88 67 42 44 45 46 47 42 42 37 32 30 29 29 27 25 23 24 25 27 29 33 33 36 40 41 44 46 46 41 37 33 28 22 18 15 15 15 16 13 13 12 12 12 12 13 15 18 18
89 90 93 99 100 95 64 48 46 47 47 48 47 41 34 32 32 32 33 31 30 29 28 28 30 32 37 39 39 41 43 47 51 54 55 53 51 44 37 32 28 26 25 24 24 24 24 24 23 22 20 17 15 14
93 97 100 100 100 100 68 52 49 47 50 52 47 38 32 34 35 34 36 34 33 34 34 35 38 39 40 43 44 46 49 51 53 57 57 60 62 65 60 54 46 40 38 37 36 37 37 36 36 37 37 36 36 36
98 100 100 100 100 100 76 58 54 55 54 55 49 42 36 34 32 30 28 28 32 34 36 38 40 41 45 45 48 51 53 56 56 66 60 67 65 70 74 78 75 65 57 52 52 52 50 44 41 43 42 41 46 45
100 100 100 100 100 100 89 66 62 60 59 58 56 48 40 36 31 27 25 25 31 35 40 41 46 50 49 50 49 52 56 59 62 59 62 68 70 72 78 82 85 88 84 80 78 75 72 66 52 45 46 47 52 50
100 100 100 100 100 100 99 76 69 66 67 66 61 55 46 43 31 28 30 32 38 40 42 45 52 60 60 57 56 54 55 57 64 69 64 65 66 71 79 83 87 90 92 96 97 98 97 94 90 83 64 53 53 53
100 100 100 100 100 100 100 89 78 76 77 75 69 60 56 45 36 42 48 46 42 37 35 47 65 68 65 67 66 66 58 59 64 70 81 75 69 66 72 82 85 90 94 97 97 98 95 94 97 100 96 88 74 60
100 100 100 100 95 97 99 100 88 86 83 82 78 73 58 56 44 42 46 42 33 26 33 68 74 73 71 69 72 70 65 67 68 69 73 84 81 72 70 78 87 92 94 95 95 98 100 99 100 96 89 89 90 77
100 100 100 99 95 94 97 100 100 91 88 87 80 77 77 69 61 51 44 33 23 22 44 62 73 78 75 78 77 73 70 74 73 74 73 81 88 83 74 74 77 81 83 86 95 100 100 100 100 98 95 96 93 86
100 100 100 100 100 98 99 100 100 100 92 84 93 99 88 75 66 58 37 23 22 25 42 56 80 81 81 79 77 74 80 80 80 77 74 78 81 80 72 68 70 74 78 79 92 100 100 100 100 100 99 96 90 86
100 100 100 99 100 100 100 100 100 99 97 100 100 100 95 82 71 58 38 27 28 35 48 71 80 86 90 76 72 80 83 78 80 80 80 79 81 78 67 63 60 64 67 72 86 100 100 100 100 100 99 98 94 89
100 96 96 99 100 100 100 100 99 99 100 100 100 99 100 98 81 62 44 36 39 52 69 83 86 100 80 72 81 84 78 75 79 83 80 77 76 72 64 58 58 62 63 68 87 98 99 96 100 100 99 99 98 98
100 100 100 100 100 100 100 94 97 98 100 100 100 98 100 100 99 92 76 70 78 87 88 95 100 77 63 77 89 89 88 86 86 84 81 78 74 67 61 57 58 61 62 66 84 92 92 97 100 100 100 100 100 99
100 100 100 100 100 99 94 98 100 100 100 100 100 100 100 100 100 100 98 95 90 94 98 97 82 65 68 89 86 86 90 85 86 82 83 77 72 64 57 54 56 59 64 68 89 96 96 100 100 100 100 100 100 100
100 100 100 99 100 100 97 100 100 100 100 100 100 100 100 100 100 99 96 91 92 98 91 79 68 72 83 84 81 78 81 85 85 84 80 72 66 60 52 51 55 56 58 68 85 95 96 100 100 100 100 100 100 100
100 100 100 100 100 100 99 100 100 100 100 100 100 100 100 100 98 96 82 83 83 84 73 63 69 79 85 81 72 69 74 84 84 81 76 68 63 55 50 51 53 55 59 67 85 97 97 96 99 100 100 100 100 100
100 100 100 100 98 88 88 100 100 100 100 100 100 100 100 100 95 90 82 92 83 69 62 67 76 78 73 66 65 71 76 82 83 80 71 64 58 53 51 52 53 55 58 74 92 99 98 96 100 100 100 100 100 100
100 100 97 88 79 76 94 100 100 100 100 100 100 100 100 95 88 82 78 80 65 64 72 73 70 61 58 62 72 76 80 82 80 74 68 60 55 53 53 55 56 59 64 81 90 96 99 100 100 100 100 100 100 100
100 94 82 73 75 81 95 100 100 100 100 98 96 100 100 94 85 65 73 69 66 71 71 69 66 63 65 72 78 80 81 81 76 69 62 59 56 54 54 54 56 61 68 80 94 100 98 99 100 100 100 100 100 100
97 82 76 76 81 86 93 100 100 100 100 100 100 100 94 84 68 62 57 56 61 64 70 73 71 69 72 77 79 79 78 76 71 67 64 61 57 52 51 53 56 62 70 81 93 99 94 91 93 100 100 100 100 100
94 84 79 83 87 88 93 100 100 100 100 100 100 99 90 74 71 69 54 51 55 63 73 76 73 72 74 76 77 76 75 72 66 61 57 54 49 50 51 55 66 70 75 83 86 87 88 91 97 100 100 100 100 100
82 81 86 89 91 92 90 88 88 98 100 100 99 96 83 72 62 59 61 63 60 64 71 72 72 73 73 73 74 72 70 65 59 52 48 48 48 50 52 64 73 76 80 81 83 87 87 94 100 100 100 100 100 100
74 77 75 74 74 74 76 87 98 100 100 97 95 87 77 69 70 70 66 67 67 66 70 75 75 71 69 69 65 61 56 53 51 49 50 51 51 52 62 75 79 78 77 79 82 85 94 100 100 100 100 100 100 100
77 78 77 74 72 76 85 90 93 95 97 97 95 84 78 76 72 71 70 69 69 70 72 74 72 68 65 61 57 53 51 50 49 52 54 54 58 68 76 78 76 72 74 75 76 87 100 100 100 100 100 100 100 100
75 71 71 73 76 81 84 89 96 94 93 89 83 79 77 78 73 68 66 66 67 70 73 71 66 62 59 56 53 50 51 54 58 59 61 67 68 70 69 67 67 67 68 71 89 100 100 100 100 100 100 100 100 100
100 100 97 97 95 92 93 98 99 97 91 83 82 81 75 74 69 70 72 74 76 75 69 62 60 58 56 55 56 58 61 64 68 76 78 73 64 64 65 63 64 66 78 96 100 100 100 100 100 100 100 100 100 100

GFSWCAN_500_rhum_237.txt.gz
RH
97 96 96 55 19 26 38 44 44 42 38 35 30 27 23 18 19 15 10 10 11 13 15 11 8 9 10 11 12 14 14 13 10 9 9 13 16 18 21 23 28 40 54 50 54 52 48 46 47 59 62 73 82 84
31 38 26 19 29 38 48 48 45 43 41 36 30 26 20 19 17 12 10 11 12 14 14 12 10 10 12 14 15 17 18 18 14 11 10 9 11 16 18 20 18 18 23 24 30 32 35 35 32 35 43 77 74 76
8 12 23 35 46 52 52 51 50 48 43 36 29 23 20 21 16 12 11 12 14 15 14 12 11 12 13 15 18 20 21 22 20 17 13 12 13 11 11 12 14 18 22 24 24 20 19 17 18 19 21 25 28 30
16 30 42 50 58 56 56 57 56 52 44 34 27 21 21 19 14 14 13 15 16 16 14 15 14 13 14 17 19 23 25 27 27 23 20 16 14 13 12 12 13 14 18 20 20 20 18 14 10 8 8 9 10 14
38 47 57 62 60 61 65 65 61 54 42 31 23 22 21 17 14 15 16 17 17 18 16 17 17 15 18 20 23 25 28 31 35 34 31 25 20 18 15 13 11 10 9 10 11 15 11 9 9 10 9 9 11 14
48 56 64 66 69 73 73 71 65 54 38 26 24 24 23 17 16 16 18 19 18 19 18 20 18 19 22 25 27 28 31 35 38 42 44 42 37 28 24 20 18 15 14 13 13 12 13 12 12 12 11 11 12 16
57 66 70 74 75 80 81 72 66 50 33 27 27 26 23 18 18 20 21 21 19 21 20 22 21 23 27 30 33 34 35 39 42 46 50 51 51 48 39 35 29 26 23 22 21 22 22 22 22 23 22 19 16 15
64 71 72 76 84 87 83 75 66 44 31 30 29 30 24 20 20 22 23 21 21 22 23 24 25 27 31 34 38 40 42 45 49 50 53 55 54 60 59 57 52 42 36 34 32 33 33 34 33 33 34 34 33 32
67 75 81 85 93 92 81 78 65 40 33 33 34 34 27 23 23 24 24 24 25 26 28 28 31 32 36 39 42 44 46 49 53 56 57 56 56 65 64 65 65 66 62 54 50 47 46 45 43 38 38 39 38 38
72 83 92 96 97 86 80 77 66 40 38 37 37 38 30 26 26 27 28 29 30 30 31 33 35 38 40 43 46 47 49 50 54 59 60 62 58 64 63 68 74 74 74 76 75 72 70 67 65 57 46 42 43 45
78 93 100 100 89 84 86 87 73 44 40 39 42 44 34 30 29 29 31 30 30 30 32 36 41 43 46 50 54 53 52 53 55 57 60 66 64 63 62 64 71 77 80 82 86 87 90 91 93 92 87 76 59 52
83 100 100 98 92 87 88 93 86 53 45 45 45 46 42 35 30 29 30 29 27 26 32 39 43 46 53 59 61 59 61 60 61 60 62 65 67 70 71 67 68 74 78 86 91 94 97 96 94 95 97 98 92 87
94 100 100 96 92 93 94 94 94 73 54 51 50 50 49 43 37 31 30 29 28 29 36 41 40 44 59 64 67 66 66 68 64 66 68 68 68 69 75 79 74 73 72 76 84 90 98 98 96 97 92 90 91 89
100 100 100 99 93 93 96 96 94 92 66 58 57 56 56 49 46 43 36 30 30 39 43 42 33 36 63 68 74 73 70 69 70 73 72 71 72 70 71 76 78 73 68 66 72 79 88 96 97 93 92 93 95 94
100 100 100 98 91 93 94 94 95 91 89 66 64 64 62 63 58 55 48 40 39 46 46 39 28 28 50 63 78 76 74 73 75 79 76 76 75 74 72 73 76 71 64 61 62 66 73 92 99 96 96 94 94 92
100 100 100 98 89 89 95 98 99 94 93 86 68 67 71 74 70 63 56 51 43 43 43 37 24 23 38 70 82 82 76 77 80 82 78 78 78 78 74 74 75 69 61 56 56 61 66 83 100 97 97 98 97 94
100 100 100 99 90 92 96 100 98 96 91 91 80 79 86 82 74 71 68 64 60 56 47 30 23 24 41 81 86 78 80 82 83 81 80 84 83 80 75 74 72 66 59 54 55 57 60 74 99 100 96 95 97 97
100 100 100 96 97 100 100 100 97 95 92 90 97 99 92 90 87 85 82 75 68 65 56 36 31 35 67 80 78 82 81 76 84 85 84 85 83 82 80 77 71 64 58 53 52 55 60 67 96 100 96 98 100 100
100 100 100 100 100 99 99 96 98 99 97 93 94 94 99 100 96 92 93 89 82 76 60 44 39 80 90 81 80 81 72 71 85 87 88 86 83 83 82 78 70 65 57 52 51 55 58 66 92 100 99 100 100 100
100 99 100 100 100 99 95 90 97 98 92 93 95 94 98 98 94 89 86 93 98 91 82 74 98 96 86 80 82 76 66 70 79 82 87 84 80 81 82 75 68 64 56 52 52 56 61 65 85 100 100 100 99 100
98 100 100 100 97 82 82 91 96 97 98 96 96 98 100 99 95 89 87 86 86 91 97 100 100 89 80 83 81 68 66 73 78 74 72 83 87 82 81 73 65 58 54 52 51 54 59 66 86 100 100 100 100 98
100 97 100 97 94 98 97 99 100 100 97 99 100 100 100 98 93 90 88 85 89 96 100 99 96 89 85 83 71 64 65 74 76 66 62 67 78 80 77 69 62 56 50 48 49 54 59 73 87 96 100 100 100 100
100 100 99 100 98 91 84 90 90 100 100 100 100 100 100 100 96 92 80 87 94 100 98 89 86 84 80 73 62 59 68 73 63 57 58 66 70 72 71 67 60 52 49 49 50 54 61 74 88 96 98 97 99 100
100 100 97 90 83 80 78 90 100 100 100 100 100 100 100 97 91 80 78 97 99 92 89 86 84 76 66 60 61 66 65 56 54 56 60 69 70 70 68 63 55 50 51 52 51 56 64 75 88 97 99 100 98 100
100 100 92 84 80 74 82 100 100 100 100 100 100 100 100 95 86 80 89 100 88 84 83 80 73 65 60 62 63 62 59 56 53 57 61 65 65 64 62 58 54 53 54 51 51 57 66 76 89 96 97 96 95 99
99 92 80 71 70 76 93 100 100 100 100 100 100 100 100 90 82 78 98 99 92 90 83 72 62 55 52 51 53 57 58 55 55 57 57 60 60 59 58 57 54 52 49 48 51 60 68 78 93 99 95 90 93 100
94 78 72 74 75 85 100 100 100 100 100 100 100 100 94 84 82 90 96 96 98 93 79 64 53 48 45 46 49 52 56 56 55 53 51 52 54 57 58 56 52 46 44 46 52 62 75 89 97 95 89 87 92 100
82 76 76 82 88 98 100 100 100 100 100 100 100 98 90 85 94 93 85 93 92 85 70 58 51 48 46 48 50 52 52 55 56 57 58 59 59 55 49 44 43 44 48 52 56 70 84 91 92 85 84 86 97 100
73 76 84 86 89 95 100 100 100 100 100 100 99 98 93 98 96 93 95 93 89 80 68 58 51 49 48 48 50 54 60 61 60 57 59 59 56 51 46 43 42 48 52 57 68 81 86 85 81 79 79 87 98 100
70 88 93 98 95 91 99 100 100 100 98 99 97 92 91 94 94 90 88 88 83 74 65 58 53 52 56 58 59 60 60 59 57 55 53 51 50 48 46 46 48 54 60 72 79 81 79 76 74 73 76 95 100 100
92 94 99 100 100 100 100 100 100 100 100 100 100 94 97 93 89 89 88 87 83 75 66 60 58 62 62 60 57 58 58 56 53 50 47 46 46 48 50 55 58 71 75 73 71 70 69 68 68 75 92 100 100 100
89 93 94 97 100 100 100 100 100 100 100 98 96 92 92 90 85 85 86 86 78 70 68 65 64 65 62 60 61 60 55 50 47 46 47 50 54 58 61 66 74 74 71 69 69 67 67 69 83 97 100 100 100 100
91 90 91 95 96 95 98 100 100 100 98 95 99 100 99 95 84 82 80 80 78 74 73 73 70 65 62 59 54 51 49 48 49 54 59 61 63 68 72 73 74 71 65 66 68 73 86 98 100 100 100 100 100 100

GFSWCAN_500_rhum_240.txt.gz
RH
97 97 99 99 97 87 61 48 41 40 38 33 30 27 23 21 19 19 14 9 9 9 7 8 9 10 12 14 15 17 18 19 20 21 20 18 14 10 8 9 10 14 15 17 19 24 30 34 32 35 34 32 34 36
100 99 98 99 77 46 36 37 41 39 37 33 30 26 24 22 19 19 12 9 9 10 8 8 9 11 13 15 18 21 22 23 24 24 25 24 20 16 12 10 9 10 9 11 16 12 13 18 24 24 23 21 21 23
97 91 54 30 29 28 36 42 42 41 37 35 30 27 25 21 21 17 10 10 10 10 9 8 9 12 14 17 20 23 26 28 29 29 30 30 27 24 19 15 13 11 10 8 10 11 8 8 7 7 6 6 7 7
91 83 49 31 32 40 45 45 43 41 41 36 31 28 26 22 20 14 11 11 11 11 10 10 11 13 17 20 23 26 29 32 33 34 34 36 36 36 31 24 19 17 15 14 12 13 12 12 11 10 10 9 9 8
44 28 27 34 43 49 47 46 46 46 43 36 31 28 24 23 19 12 12 12 12 12 12 12 13 16 20 22 26 29 32 35 38 40 41 42 43 42 43 38 32 24 22 19 18 18 19 18 18 18 18 19 18 17
18 28 39 48 53 53 52 52 52 51 45 39 34 27 26 23 16 12 13 12 13 14 14 15 16 19 22 25 29 32 35 38 41 44 46 46 48 49 50 52 50 42 34 29 27 26 26 27 28 29 29 30 29 28
34 43 50 59 61 58 56 58 58 53 50 40 31 28 26 22 14 13 14 15 15 15 16 17 18 21 24 28 31 34 38 41 44 48 51 52 51 52 55 56 57 59 57 51 43 39 38 37 36 35 34 35 36 35
46 54 62 63 60 60 63 62 62 61 52 38 30 28 25 20 14 15 16 16 18 16 17 18 21 23 27 31 34 37 41 45 47 50 54 54 56 57 57 58 59 62 65 67 67 65 63 60 59 56 51 44 39 38
55 64 68 67 67 67 68 69 72 66 51 36 31 29 27 21 17 17 18 19 19 19 20 21 24 29 32 34 38 40 44 47 50 53 54 55 58 63 63 63 62 62 66 70 73 74 76 77 79 81 82 80 75 65
61 71 73 75 75 69 69 79 79 69 50 35 32 30 29 24 19 20 21 21 22 23 25 26 29 32 34 39 43 44 48 50 55 57 56 58 59 62 64 68 68 66 65 67 71 77 82 86 86 87 88 89 90 88
64 75 79 79 80 79 80 86 86 74 52 37 34 33 33 29 24 23 24 25 26 28 28 29 31 36 40 43 48 50 52 55 58 61 61 61 62 65 66 65 69 73 72 68 64 67 73 82 91 91 91 94 95 91
62 76 86 92 91 85 88 93 95 83 58 39 36 36 37 35 26 25 27 28 29 30 29 29 31 38 42 45 52 53 55 60 61 63 63 61 64 65 67 67 67 68 71 69 62 59 60 66 78 89 94 100 99 94
57 72 87 97 96 90 89 93 97 92 72 45 40 39 41 42 36 30 28 29 29 29 28 28 32 39 39 38 44 49 52 65 67 68 65 66 65 65 67 68 69 68 69 68 62 54 52 55 62 74 88 95 99 96
52 68 88 98 97 98 100 100 99 90 84 63 47 46 46 46 46 42 36 31 29 29 28 29 37 41 38 29 30 37 47 65 72 72 66 65 68 66 66 69 71 69 68 67 62 54 51 51 55 63 76 95 97 98
47 65 83 100 100 99 100 100 95 87 84 84 64 53 52 54 56 54 49 41 34 32 28 27 37 42 40 32 25 27 42 63 75 74 68 66 68 66 66 69 70 70 69 67 62 55 49 48 52 56 65 86 98 100
43 58 80 100 100 100 100 100 90 90 90 85 84 72 60 63 64 61 59 52 44 40 36 32 31 35 38 32 25 28 38 66 76 75 68 64 68 68 68 68 68 69 70 67 62 56 49 48 49 52 58 78 92 94
40 58 98 100 99 97 100 99 88 84 85 89 86 86 83 73 70 67 66 63 56 49 45 42 42 43 43 37 30 31 42 71 78 75 65 63 69 70 69 66 62 66 70 67 62 55 48 47 48 53 55 71 92 98
40 86 100 99 100 100 100 99 86 82 90 94 96 99 98 92 79 72 71 71 70 66 59 54 51 52 53 45 42 45 61 77 79 75 63 61 67 69 63 59 58 66 71 68 59 52 50 47 47 50 55 67 89 98
76 100 100 100 100 100 99 93 83 88 91 92 98 100 98 93 88 82 77 76 79 79 77 73 67 67 61 58 60 68 81 82 80 73 62 59 65 68 60 50 57 67 71 66 59 53 50 47 48 53 56 66 91 100
99 100 99 97 99 100 98 94 95 90 91 96 97 100 99 94 91 88 83 79 80 78 75 81 96 89 75 73 72 79 83 81 82 72 63 64 67 67 54 48 59 66 67 65 61 55 50 48 47 49 55 71 91 99
98 98 98 97 96 98 95 100 97 95 98 95 100 100 100 100 96 88 84 78 72 78 82 92 93 82 74 72 78 86 86 84 76 66 62 74 73 58 46 48 58 65 67 65 61 54 50 50 48 49 58 75 90 95
100 99 100 99 99 100 100 100 98 99 95 99 100 97 95 98 97 89 80 74 81 92 94 92 86 78 76 80 82 87 85 75 68 59 66 70 57 48 49 53 59 61 62 61 58 52 50 49 48 52 60 73 89 100
100 99 99 100 100 99 94 98 89 93 89 91 97 96 97 99 94 89 79 85 94 95 89 84 83 78 81 85 84 80 75 68 60 63 66 57 48 44 47 49 49 50 54 57 55 52 51 48 47 52 61 71 83 97
100 100 100 100 90 81 72 81 90 93 94 100 100 100 99 95 93 85 85 94 96 87 80 80 79 84 86 84 81 77 68 61 60 62 59 54 48 44 42 38 37 39 46 53 54 53 49 45 43 48 60 70 81 98
100 100 89 75 71 65 65 79 94 96 100 100 99 98 98 94 86 78 88 99 88 80 85 87 87 85 82 81 76 68 61 56 52 49 47 46 44 44 39 38 41 41 42 49 52 49 45 42 45 52 60 71 88 100
97 88 79 70 67 72 76 88 98 100 100 96 94 98 96 84 77 77 98 93 85 86 84 82 79 80 81 78 70 61 52 47 43 40 39 40 38 38 33 33 34 36 44 48 48 44 40 39 45 54 61 79 96 100
92 78 68 67 66 72 77 95 100 100 97 97 100 99 90 81 76 86 98 92 91 87 80 75 76 84 86 83 75 63 52 45 40 37 36 36 34 32 32 34 32 34 41 44 45 44 41 43 51 58 70 89 97 96
76 72 74 76 78 81 87 100 98 96 99 100 100 97 91 86 95 95 89 91 89 82 79 78 81 86 89 85 74 63 52 45 38 35 34 35 35 37 37 38 36 36 40 42 43 43 45 51 58 70 82 89 91 88
67 70 74 78 88 85 84 93 100 100 100 100 100 100 94 100 96 88 90 90 85 80 76 78 83 87 87 82 74 65 55 46 40 39 39 41 42 43 42 38 37 37 39 43 47 49 54 59 72 80 79 78 78 75
65 71 73 77 78 82 93 100 100 100 100 100 100 99 100 100 98 90 84 82 80 76 75 78 82 83 84 79 69 59 52 48 47 46 46 46 46 45 40 33 35 39 44 49 54 59 66 78 81 78 75 73 72 76
78 80 83 83 85 92 100 100 100 100 100 100 100 97 100 99 92 85 80 77 73 75 77 79 79 81 80 75 68 61 54 51 50 50 47 45 44 36 32 34 40 47 55 59 63 72 80 80 74 71 72 72 84 98
82 81 86 90 92 100 100 100 100 100 98 95 94 96 97 93 84 78 77 75 76 80 85 83 83 81 76 71 65 59 56 54 52 51 48 40 36 32 33 39 49 58 60 68 74 74 74 71 69 71 82 95 100 100
79 84 96 100 99 98 100 100 100 98 99 99 98 98 97 88 76 74 81 89 93 93 87 81 77 74 71 66 63 60 58 56 53 45 41 34 33 38 46 56 62 66 68 68 69 72 72 70 75 89 97 100 100 100

GFSWCAN_500_rhum_243.txt.gz
RH
99 99 99 99 99 99 99 97 98 97 84 60 43 29 24 21 19 17 16 13 9 8 6 7 8 10 10 12 15 16 17 17 19 22 24 26 26 25 24 21 16 12 10 8 8 9 13 18 23 26 26 24 22 20
100 100 100 99 99 99 99 98 96 93 80 35 30 26 24 21 19 16 17 10 9 9 7 8 9 10 13 14 16 18 18 20 21 23 25 28 29 30 30 29 25 20 16 13 11 11 8 6 6 6 6 6 6 6
99 99 99 99 98 99 96 76 45 48 39 32 28 26 23 21 19 18 15 10 10 11 7 8 10 12 14 17 18 21 21 23 25 25 27 29 32 34 34 34 34 33 27 21 19 17 17 15 15 15 15 14 15 15
99 99 99 99 98 86 76 67 59 40 35 31 28 25 23 21 18 18 13 11 12 12 9 8 10 13 16 19 20 23 23 26 27 29 31 32 33 36 38 38 39 40 39 35 29 25 24 23 23 24 24 24 24 23
99 99 99 97 97 91 72 53 45 38 34 32 28 25 24 20 20 18 12 12 13 12 10 9 11 15 17 20 23 25 27 28 31 32 34 36 38 38 41 42 43 44 45 47 45 39 33 32 31 30 30 29 29 29
99 98 96 92 68 60 49 47 41 38 37 32 28 25 24 22 22 18 13 12 13 12 11 11 13 16 18 20 24 27 30 31 33 34 36 39 43 42 45 46 47 48 50 52 55 57 57 52 48 44 44 41 37 34
93 93 64 44 49 51 50 45 42 42 37 32 30 28 25 22 22 20 15 15 13 12 12 13 14 18 20 22 25 29 33 34 37 38 38 40 42 45 47 49 52 53 54 56 58 62 65 68 70 70 71 71 69 65
71 53 43 48 54 53 50 48 48 44 38 36 33 29 25 25 26 21 16 16 15 14 14 15 16 19 21 25 28 31 35 39 39 42 42 40 42 43 47 47 49 53 57 60 61 61 63 66 75 79 84 86 86 84
40 45 52 58 57 54 53 53 52 47 46 41 35 28 28 29 27 21 18 18 17 16 16 16 18 20 24 27 31 34 37 44 44 42 44 43 44 44 44 47 49 52 55 58 62 61 56 56 63 73 81 87 93 95
37 49 59 62 59 58 59 59 54 55 52 45 37 32 33 32 29 22 19 19 19 18 17 18 19 23 26 30 34 39 44 47 50 48 49 48 46 47 44 43 48 52 55 57 60 60 56 52 48 55 64 72 79 91
47 59 65 65 65 66 66 63 61 61 58 48 39 37 36 36 31 25 22 20 19 18 18 21 24 27 30 34 38 43 48 49 51 52 49 51 50 47 47 44 45 48 52 56 59 60 56 50 44 43 48 55 64 75
57 66 70 72 73 72 66 61 63 67 64 53 46 42 39 37 36 28 24 22 21 22 23 26 28 29 32 37 40 41 44 42 44 50 52 51 52 49 48 48 46 48 51 53 58 59 56 50 45 41 43 49 55 62
61 71 77 77 78 77 74 70 68 76 72 61 50 45 43 42 40 34 26 24 25 26 28 30 29 29 30 35 40 37 34 32 34 41 50 52 53 51 48 50 49 47 46 48 53 58 56 52 48 42 41 44 49 54
59 70 78 82 86 88 87 83 77 81 84 75 59 50 46 44 42 40 30 29 28 30 31 31 29 28 29 34 39 37 32 31 28 32 46 52 53 54 48 51 52 49 44 44 51 57 57 54 48 44 40 42 47 52
54 67 76 84 91 97 97 88 79 87 92 91 82 62 49 44 44 44 41 35 32 31 31 31 30 29 29 33 40 39 37 33 28 31 44 52 55 58 50 49 53 50 43 41 46 54 57 53 48 45 40 39 44 52
44 56 68 80 91 100 100 100 93 88 94 94 94 89 69 50 48 48 48 48 45 42 40 37 35 33 31 30 32 32 32 33 33 36 47 55 58 60 52 50 52 52 44 39 44 52 56 54 50 44 40 39 41 48
33 42 52 68 82 98 100 100 95 87 79 88 94 95 86 75 57 54 54 55 56 56 54 49 46 46 43 42 39 38 39 42 42 44 55 59 60 62 54 50 54 54 44 38 42 48 52 52 53 46 39 37 38 44
26 31 40 51 67 80 100 100 98 88 89 97 100 98 92 87 83 71 60 60 62 66 65 64 61 57 55 61 53 42 49 50 49 58 64 61 63 65 56 52 55 54 43 38 44 49 53 54 52 47 42 41 39 42
20 25 30 37 48 62 87 100 96 98 99 100 100 92 84 86 87 84 79 70 67 69 71 76 72 75 80 70 60 54 57 61 68 70 66 64 66 66 56 52 58 49 40 37 42 44 45 48 52 48 43 42 41 39
17 20 24 29 38 43 82 100 99 100 100 100 95 87 81 80 82 84 85 86 82 77 75 77 91 97 82 65 64 71 72 77 74 71 67 68 70 64 55 53 54 42 36 35 35 37 38 43 49 49 46 43 40 38
21 22 25 27 33 38 80 100 98 100 100 99 97 89 84 81 80 82 84 80 74 81 92 99 100 95 80 72 72 72 76 78 75 70 72 74 69 60 53 54 48 40 35 31 28 26 30 37 44 49 47 44 40 39
35 32 33 33 36 49 90 100 95 100 100 100 99 92 82 82 80 80 80 71 81 97 100 99 96 84 77 80 80 80 83 81 74 70 73 74 64 57 57 54 47 40 35 30 28 28 28 29 39 47 47 42 38 40
48 49 50 50 55 79 95 100 98 100 99 100 100 96 91 82 78 80 68 78 93 100 97 92 88 81 81 82 85 85 80 76 72 72 72 65 58 57 56 48 41 37 37 32 28 22 22 27 37 42 44 43 38 39
46 52 56 59 68 88 93 100 100 100 100 100 100 100 94 82 75 69 68 92 100 95 89 91 87 85 89 92 84 77 74 70 68 67 64 60 56 52 45 40 38 36 32 25 22 23 23 24 29 37 42 43 40 41
49 49 53 52 64 81 90 97 100 100 100 100 100 93 89 82 74 66 79 99 94 88 88 89 91 93 90 85 78 74 70 66 66 66 64 57 50 45 40 36 34 30 28 26 30 29 24 22 25 33 40 42 42 46
84 78 73 73 77 80 78 90 97 100 100 100 97 95 94 90 76 63 92 98 86 87 88 91 92 90 85 79 75 71 69 69 70 69 65 58 52 45 41 33 29 28 27 26 27 26 21 20 22 28 36 42 47 51
91 78 78 73 74 76 77 88 97 100 99 97 98 100 97 84 68 75 100 94 89 90 94 94 93 89 84 79 72 67 66 69 76 79 74 67 58 53 43 34 32 31 30 30 29 24 21 20 22 31 39 45 54 62
81 77 71 73 74 78 85 94 95 96 96 97 97 96 92 82 85 98 100 97 97 97 96 95 94 90 83 75 68 64 64 68 78 82 78 71 66 57 47 40 38 38 37 32 24 21 18 20 26 37 47 55 65 74
85 77 77 81 83 78 75 81 88 98 100 100 97 96 90 95 100 92 88 97 100 100 100 99 95 89 82 74 68 65 65 68 74 79 77 72 62 53 47 44 42 41 37 28 22 17 18 25 36 47 54 67 75 77
76 78 86 84 82 82 84 98 100 100 100 95 93 94 95 98 97 86 91 100 100 100 100 100 96 87 78 72 65 63 64 68 70 70 69 67 62 56 50 45 42 38 33 24 18 19 26 38 53 59 69 72 72 70
70 71 71 75 79 83 90 100 100 100 96 94 96 95 100 100 95 90 92 100 100 100 100 100 92 80 72 65 62 62 63 64 65 67 67 64 60 55 48 44 40 35 26 19 20 28 42 58 65 67 67 68 70 69
70 69 71 74 80 82 92 100 100 100 95 95 99 99 98 96 91 86 92 98 100 100 100 92 83 74 68 63 61 60 59 62 67 68 66 61 56 50 44 38 33 26 20 22 32 45 58 64 64 64 67 68 70 74
77 81 84 88 87 97 100 100 100 99 92 88 88 92 95 90 80 83 96 100 100 100 93 84 74 69 66 65 66 67 69 69 68 65 61 55 48 42 36 32 25 22 24 35 51 58 60 61 62 64 67 69 78 88

GFSWCAN_500_rhum_249.txt.gz
RH
90 72 49 40 50 57 57 54 57 51 48 46 56 79 100 100 100 99 99 96 84 17 13 6 8 9 10 10 12 12 13 14 13 13 15 15 14 16 18 19 23 27 27 30 33 36 36 40 36 32 28 26 26 25
100 72 47 65 50 48 49 49 51 51 53 56 88 100 100 100 98 97 97 88 22 13 7 6 7 7 7 12 14 14 15 15 15 15 14 15 16 17 18 22 23 28 28 31 34 39 43 42 46 50 51 52 52 52
100 99 73 54 43 40 40 38 40 48 42 68 99 100 100 99 94 98 77 27 15 11 7 8 8 10 14 19 18 17 17 18 20 16 16 17 18 19 19 22 22 21 23 27 31 35 44 42 40 43 46 49 49 62
96 79 40 34 29 28 30 35 42 47 64 94 100 100 100 97 100 78 21 16 14 10 7 7 10 11 12 12 16 19 17 20 20 19 20 20 20 21 22 23 22 22 21 23 26 26 32 36 42 45 45 44 42 50
25 38 61 60 50 81 71 94 99 100 100 100 100 99 100 100 81 26 16 17 12 10 8 8 9 10 13 15 18 18 20 21 21 22 24 24 24 25 26 27 27 27 27 27 24 24 29 34 39 41 47 44 45 46
100 100 98 99 100 100 100 100 99 99 99 100 100 100 98 88 37 17 17 17 12 12 9 8 9 10 13 16 18 20 22 22 22 25 28 30 29 29 31 32 31 32 30 26 28 28 29 37 46 45 47 43 38 36
98 97 98 99 98 99 100 100 99 100 100 100 100 98 95 41 19 17 19 17 13 11 12 11 10 10 12 14 18 22 23 24 24 26 31 32 35 34 35 35 35 34 34 32 30 32 30 29 33 33 37 42 40 39
100 100 100 100 99 99 99 100 100 100 100 99 98 86 38 20 19 21 21 18 13 13 13 10 9 10 10 14 19 22 23 24 25 28 30 33 35 36 36 37 38 38 37 37 33 30 27 26 27 32 33 39 39 40
99 99 99 99 99 100 100 100 100 100 99 95 57 22 21 21 22 24 22 19 16 14 14 14 13 12 11 14 18 20 22 25 25 28 32 35 38 38 39 37 38 41 39 37 38 35 30 26 25 27 33 37 37 39
99 99 99 98 99 99 99 100 100 98 87 44 24 24 24 24 26 25 23 21 17 14 14 15 15 14 13 15 18 19 22 24 28 30 32 37 37 36 38 42 42 44 43 39 38 35 34 30 26 25 25 24 26 31
100 98 99 100 100 100 100 100 94 72 39 26 27 27 26 28 28 28 26 22 17 14 14 15 16 15 15 19 19 19 20 24 27 32 34 36 34 33 32 35 44 45 45 43 40 38 37 33 27 23 23 21 22 25
99 99 100 100 100 99 98 88 53 31 29 31 31 31 30 30 29 28 26 24 20 18 16 16 19 17 17 17 19 21 23 25 26 33 34 35 33 33 32 32 38 48 49 48 45 41 41 38 30 26 25 21 17 16
100 100 100 99 92 70 55 72 63 34 34 35 36 35 33 31 29 27 25 24 22 18 18 18 19 19 19 19 20 24 24 25 28 31 32 36 35 35 33 32 37 47 53 52 50 44 41 41 33 26 22 18 16 14
100 100 100 98 91 90 75 50 35 38 40 40 39 36 34 31 27 28 27 26 25 25 22 21 22 24 23 23 24 24 25 27 27 27 35 36 37 34 31 34 41 46 56 55 54 49 46 44 36 29 23 20 17 15
100 100 100 79 76 88 61 41 43 45 46 44 42 39 36 32 31 29 31 31 32 30 27 25 24 25 26 24 25 26 27 27 26 29 30 32 32 31 34 40 46 50 59 58 58 53 48 47 38 31 25 20 18 17
100 99 100 97 91 54 42 45 50 53 54 51 48 43 42 38 35 34 33 34 34 35 37 35 30 28 27 28 28 29 28 29 30 29 29 28 32 36 41 48 50 58 63 62 61 56 51 48 40 32 26 22 21 18
78 91 96 84 62 46 47 53 60 64 63 59 54 55 50 48 44 38 36 35 35 38 41 41 40 37 31 29 28 29 34 36 32 31 33 38 41 42 46 54 59 65 65 64 62 58 52 50 42 35 29 24 21 19
100 100 100 81 61 55 60 66 68 73 71 69 66 64 66 62 59 56 49 44 42 40 41 45 46 46 44 43 42 43 43 42 44 44 45 51 54 54 60 66 70 70 68 66 62 59 54 52 46 38 31 28 23 21
56 40 61 83 79 79 83 84 81 81 83 81 78 77 76 74 71 69 66 66 64 58 51 50 49 50 54 58 59 57 56 56 53 57 64 69 71 66 70 75 74 72 69 66 61 58 53 51 46 38 35 30 24 24
33 46 58 79 89 91 92 85 88 87 91 91 91 88 84 80 77 72 67 63 64 72 71 74 77 74 68 66 65 65 66 61 60 68 77 84 80 77 80 76 75 74 69 64 61 56 53 50 44 39 36 32 26 25
26 31 54 65 74 85 84 82 81 90 95 94 99 92 87 80 80 81 72 71 70 68 71 77 85 91 82 86 88 83 76 72 73 85 95 93 88 86 85 84 80 75 68 61 59 56 52 49 43 41 36 31 29 27
17 21 23 31 38 51 61 67 76 78 87 94 96 92 94 96 100 93 82 76 74 80 79 79 80 79 84 84 85 79 75 74 84 92 95 91 88 85 86 83 77 70 64 60 59 57 54 49 47 44 37 33 31 32
14 17 19 24 28 37 37 55 58 68 75 75 79 82 86 93 96 91 85 89 95 99 87 73 68 68 80 82 74 76 79 82 85 82 76 77 81 83 83 78 72 66 62 60 60 59 58 56 55 52 47 43 41 40
17 16 16 18 23 26 34 35 40 47 50 55 59 61 62 63 68 73 80 97 100 95 90 83 71 67 66 71 76 80 79 74 77 78 79 79 82 82 77 75 71 66 62 61 62 65 66 64 62 60 56 50 46 46
22 22 19 18 19 20 22 23 26 28 31 34 37 40 41 43 46 47 69 100 97 94 90 83 78 78 74 67 67 70 71 70 71 75 78 78 80 79 78 76 71 65 62 65 66 69 70 67 66 64 58 53 52 49
21 20 19 17 16 18 18 18 19 19 21 23 24 25 28 29 30 32 90 97 87 87 86 85 86 87 87 79 72 71 71 66 68 74 79 77 75 77 78 76 70 65 65 68 70 70 69 67 67 63 60 58 54 50
79 58 41 28 24 21 18 15 15 15 15 15 17 19 21 22 23 43 91 89 86 83 85 86 83 82 82 80 77 74 72 67 64 71 76 76 77 82 81 77 72 68 66 65 63 63 64 63 62 61 60 57 52 48
84 85 80 70 60 44 33 27 22 18 17 19 21 24 26 28 34 51 75 82 83 84 84 82 82 85 87 86 84 80 75 70 70 72 76 78 79 83 84 82 78 73 69 66 64 62 59 57 57 57 56 54 52 45
85 82 84 76 67 61 58 53 42 34 34 38 41 42 40 42 42 50 75 80 75 82 87 89 88 86 85 84 84 81 77 74 74 76 79 81 85 88 88 87 83 76 69 63 60 57 54 53 56 58 58 56 49 36
85 80 81 78 72 66 61 56 49 43 43 44 46 47 44 45 50 51 58 72 78 84 86 82 81 84 86 84 83 82 79 76 76 80 85 90 94 95 95 93 86 76 68 62 58 57 57 58 61 62 59 54 41 32
86 83 83 83 76 67 62 52 44 43 43 42 43 47 47 47 46 52 63 75 80 80 83 84 82 82 83 82 81 79 78 79 82 86 91 97 99 100 99 96 88 78 70 64 62 62 61 62 64 63 57 45 37 26
83 81 85 77 77 78 76 72 70 64 63 57 53 54 52 57 58 66 77 77 74 76 79 79 78 78 78 76 72 74 80 85 88 91 96 100 100 100 100 95 89 81 73 68 65 63 64 65 64 59 47 40 29 22
70 75 87 90 86 88 89 96 94 98 92 88 88 90 86 76 64 65 72 75 72 73 73 74 75 75 75 75 76 81 88 92 93 97 100 100 100 100 100 99 92 83 75 70 67 65 66 66 59 49 39 28 23 28

GFSWCAN_500_rhum_252.txt.gz
RH
28 27 25 26 31 34 30 20 17 19 42 44 63 80 30 27 61 82 78 88 79 85 96 86 36 7 6 8 10 10 10 12 13 11 12 12 13 14 15 17 18 18 17 21 22 22 26 30 42 46 51 54 55 62
27 25 24 30 33 28 22 27 33 43 43 45 38 31 45 99 92 91 100 99 97 97 99 56 15 5 8 11 11 10 9 13 14 13 12 14 15 18 18 19 22 22 21 20 21 23 22 25 33 41 48 39 41 43
33 28 26 31 28 26 27 37 44 46 45 41 36 61 87 84 99 99 93 99 99 100 85 23 6 6 9 10 12 13 15 16 17 16 16 17 19 20 22 24 24 24 24 22 21 20 22 24 25 26 30 36 40 40
26 25 24 24 24 28 32 49 56 44 43 90 100 73 52 72 97 100 100 100 99 98 28 12 6 7 10 14 15 14 13 17 19 18 19 21 22 24 27 27 27 28 27 25 23 21 22 20 16 18 26 29 34 42
55 43 34 36 27 36 51 59 56 41 44 58 62 59 92 100 99 99 100 99 99 47 16 8 7 9 13 13 12 12 16 19 20 21 22 24 26 28 29 29 31 30 29 28 26 25 23 21 19 19 20 23 25 38
79 71 58 56 52 57 55 54 57 60 61 61 62 86 100 100 99 100 98 99 70 17 13 8 7 9 12 12 14 15 17 20 19 23 25 27 28 29 31 32 31 33 32 31 31 30 26 23 21 20 20 21 21 23
94 73 68 68 60 54 55 58 63 56 57 56 62 100 100 100 100 98 100 62 30 16 13 10 7 9 11 12 13 16 19 20 20 24 27 29 31 32 32 35 33 33 32 33 34 33 31 30 26 23 20 18 17 17
70 66 54 43 41 39 40 47 49 54 48 48 55 79 100 100 98 100 99 62 16 16 13 10 7 8 10 11 13 16 19 19 22 24 27 28 33 36 37 38 38 39 37 36 36 36 35 34 31 26 20 17 16 15
46 41 33 32 36 42 54 54 77 94 97 95 100 100 99 98 100 100 87 21 17 16 14 10 9 8 10 12 12 14 16 19 20 24 26 28 36 36 36 35 35 37 41 43 41 40 38 36 34 30 24 20 17 16
64 80 100 100 100 100 96 99 100 100 100 100 99 98 99 100 98 60 18 17 19 18 14 12 11 10 10 11 11 13 17 18 17 22 24 27 37 36 35 33 32 32 36 43 46 45 42 40 38 36 29 22 18 17
100 100 100 100 100 100 100 100 100 100 100 98 100 100 100 100 81 27 18 20 19 18 13 13 13 13 13 13 13 12 13 15 17 20 23 26 39 36 36 33 34 31 34 39 50 50 47 44 42 41 34 27 21 19
100 100 100 100 98 100 100 100 100 100 100 100 100 100 97 61 23 19 20 21 20 19 15 14 15 15 15 15 13 14 16 17 17 20 23 25 38 37 37 36 36 31 32 39 44 53 51 49 46 43 40 33 25 21
99 99 99 98 98 98 100 100 100 100 100 100 96 96 48 22 21 23 21 20 20 19 17 16 14 15 16 16 16 18 18 16 17 18 20 29 35 35 37 38 36 31 33 40 45 56 55 53 49 46 45 37 29 25
100 100 100 100 100 100 100 100 100 100 99 96 66 36 25 24 24 22 22 25 25 24 23 22 21 18 18 19 20 20 19 19 18 17 22 30 32 32 34 35 32 32 37 44 49 59 57 56 54 49 47 41 34 29
98 100 100 100 100 100 100 100 100 100 96 64 50 31 27 25 25 25 26 28 28 27 25 23 22 21 22 21 20 19 19 18 18 22 28 30 29 29 30 29 31 36 42 49 57 63 61 60 58 53 50 45 39 34
100 100 100 100 100 100 100 100 96 68 57 64 39 34 30 31 31 31 31 30 29 28 28 26 24 22 22 21 20 20 21 22 27 32 32 31 30 30 30 31 38 43 48 55 64 64 61 59 59 54 50 48 43 37
100 100 100 100 91 74 57 70 96 96 55 35 34 35 36 37 35 35 33 33 32 31 31 30 31 31 28 26 24 24 30 37 36 34 32 33 34 34 34 39 46 53 61 68 70 67 64 60 60 57 53 51 44 38
100 100 100 100 100 100 100 98 98 59 42 39 40 41 43 42 42 40 38 36 33 33 33 34 34 34 34 36 39 38 39 40 37 34 32 34 39 44 46 52 60 67 71 72 71 68 64 59 58 54 51 50 44 41
100 100 100 99 100 98 97 96 81 50 43 45 50 50 51 50 50 49 46 44 41 38 36 35 34 35 39 42 45 47 51 53 53 52 53 57 63 64 65 70 75 79 81 80 78 74 68 62 57 53 50 49 46 45
100 99 94 98 95 86 93 97 75 51 46 52 56 59 60 63 66 65 62 60 60 58 54 59 67 67 61 56 52 50 51 55 57 57 59 64 70 72 72 79 80 79 80 78 74 71 64 58 57 53 51 51 51 52
100 100 100 100 100 99 98 67 58 60 50 59 66 69 71 75 76 72 62 64 62 57 62 69 70 62 56 61 67 73 76 72 70 76 84 94 92 86 84 82 78 79 82 81 78 73 65 59 57 54 54 56 57 58
91 90 100 100 100 100 100 85 75 74 76 82 83 82 84 84 83 73 68 66 69 71 70 70 64 54 53 54 58 62 66 72 77 82 87 86 85 86 87 82 79 79 80 79 75 68 63 60 58 57 58 60 61 61
100 100 100 100 100 100 84 83 79 87 92 94 94 89 90 92 91 83 78 86 92 86 81 75 72 69 65 57 50 56 63 67 70 72 74 75 75 75 76 76 75 74 76 77 74 68 65 63 60 60 59 58 57 57
96 90 86 75 81 77 87 84 94 95 95 95 92 92 94 94 91 86 90 100 100 91 82 77 76 76 73 73 67 63 57 56 60 62 64 63 66 70 72 75 75 72 73 73 72 71 68 64 60 58 58 56 55 56
95 68 71 74 88 87 86 78 81 89 96 99 96 89 84 87 86 83 89 92 93 86 78 69 72 77 81 83 80 76 67 61 60 58 60 59 59 60 62 65 68 70 73 73 73 73 70 67 63 61 59 56 53 52
93 90 87 83 66 60 49 46 49 49 55 67 72 67 68 74 76 71 65 64 64 56 54 56 66 75 82 86 88 85 81 74 75 76 69 64 62 60 61 64 68 71 74 76 77 76 74 70 67 63 60 56 52 51
74 70 66 54 32 21 18 22 20 23 30 36 37 36 41 48 49 46 40 40 38 36 35 35 41 59 78 87 93 93 87 83 79 77 74 72 69 65 61 61 67 73 79 82 83 83 80 76 71 66 60 56 54 53
83 72 52 29 17 18 18 17 17 19 20 21 23 24 26 27 26 25 25 24 23 22 23 24 28 41 63 76 84 87 86 86 82 80 81 80 76 72 66 68 73 80 84 88 88 87 84 79 74 68 62 57 56 54
78 71 50 27 20 17 17 18 19 19 20 21 20 18 18 18 17 16 16 16 16 17 19 21 25 35 56 73 80 82 83 83 83 83 84 83 79 75 73 76 80 82 87 90 91 92 90 84 78 72 66 61 59 57
74 77 81 77 65 48 29 19 19 22 29 29 25 20 18 16 16 16 16 17 17 19 24 29 35 46 59 70 78 82 82 82 79 78 78 77 76 77 82 84 85 88 91 91 92 92 89 86 82 77 71 67 64 62
92 95 87 80 77 78 77 76 85 90 82 72 64 62 62 55 52 47 41 35 32 33 38 44 48 50 54 63 74 76 76 76 74 74 75 75 77 80 80 84 87 90 94 94 93 92 90 89 87 82 77 73 69 65
97 89 85 82 83 88 90 86 87 86 87 90 92 95 94 88 79 74 69 64 59 53 48 47 46 47 49 59 68 73 74 73 72 68 69 72 77 82 84 84 86 93 98 98 97 95 93 94 92 87 82 76 71 69
85 81 80 82 85 90 95 100 97 95 91 90 92 92 90 85 75 67 60 53 48 46 45 46 49 55 60 66 68 66 63 61 60 63 67 71 74 78 82 87 92 97 97 96 96 98 99 98 95 89 82 76 73 66